N216TB TFFJ-TNCS

Flight info

Callsign N216TB
Flight time 0h 17m
Altitude 2500
Route DCT CS200 DCT CS100 DCT
Aircraft K100/L-L/C

Departure

Time 2026-04-27 13:36
Airport St. Jean Airport (TFFJ)

Arrival

Time 2026-04-27 13:53
Airport Juancho E. Yrausquin Airport (TNCS)
Time Latitude Longitude Altitude Speed Heading
2026-04-27 13:15 17.90500 -62.84661 57 ft 0 kts 209°
2026-04-27 13:31 17.90492 -62.84662 54 ft 4 kts 180°
2026-04-27 13:31 17.90482 -62.84660 56 ft 0 kts 170°
2026-04-27 13:31 17.90478 -62.84660 56 ft 2 kts 172°
2026-04-27 13:31 17.90473 -62.84659 57 ft 0 kts 174°
2026-04-27 13:34 17.90462 -62.84658 52 ft 0 kts 172°
2026-04-27 13:35 17.90445 -62.84655 54 ft 4 kts 171°
2026-04-27 13:35 17.90433 -62.84638 50 ft 0 kts 89°
2026-04-27 13:35 17.90433 -62.84627 51 ft 17 kts 89°
2026-04-27 13:35 17.90446 -62.84207 55 ft 88 kts 85°
2026-04-27 13:36 17.90645 -62.83579 481 ft 97 kts 44°
2026-04-27 13:36 17.91285 -62.83447 1011 ft 107 kts 357°
2026-04-27 13:36 17.92050 -62.83698 1322 ft 118 kts 336°
2026-04-27 13:36 17.92770 -62.84086 1747 ft 119 kts 311°
2026-04-27 13:37 17.93052 -62.84899 2179 ft 123 kts 284°
2026-04-27 13:37 17.93341 -62.85817 2492 ft 147 kts 289°
2026-04-27 13:37 17.93457 -62.86958 2468 ft 167 kts 259°
2026-04-27 13:37 17.93106 -62.88137 2497 ft 173 kts 248°
2026-04-27 13:38 17.92680 -62.89333 2501 ft 175 kts 246°
2026-04-27 13:38 17.92198 -62.90505 2505 ft 175 kts 231°
2026-04-27 13:38 17.91311 -62.91325 2507 ft 169 kts 212°
2026-04-27 13:38 17.90364 -62.92035 2508 ft 170 kts 212°
2026-04-27 13:39 17.89409 -62.92765 2507 ft 170 kts 212°
2026-04-27 13:39 17.88451 -62.93491 2508 ft 170 kts 213°
2026-04-27 13:39 17.87489 -62.94215 2508 ft 171 kts 212°
2026-04-27 13:39 17.86525 -62.94963 2512 ft 174 kts 215°
2026-04-27 13:40 17.85677 -62.95872 2507 ft 176 kts 232°
2026-04-27 13:40 17.85111 -62.97020 2502 ft 177 kts 243°
2026-04-27 13:40 17.84631 -62.98197 2505 ft 175 kts 244°
2026-04-27 13:40 17.84153 -62.99341 2508 ft 173 kts 243°
2026-04-27 13:41 17.83667 -63.00497 2506 ft 173 kts 244°
2026-04-27 13:41 17.83179 -63.01653 2509 ft 173 kts 243°
2026-04-27 13:41 17.82691 -63.02813 2509 ft 174 kts 243°
2026-04-27 13:41 17.82203 -63.03973 2503 ft 174 kts 243°
2026-04-27 13:42 17.81714 -63.05132 2505 ft 174 kts 243°
2026-04-27 13:42 17.81219 -63.06305 2505 ft 176 kts 243°
2026-04-27 13:42 17.80724 -63.07481 2506 ft 176 kts 244°
2026-04-27 13:42 17.80229 -63.08657 2506 ft 177 kts 243°
2026-04-27 13:43 17.79730 -63.09835 2507 ft 177 kts 243°
2026-04-27 13:43 17.79243 -63.10994 2503 ft 174 kts 243°
2026-04-27 13:43 17.78764 -63.12131 2463 ft 170 kts 242°
2026-04-27 13:43 17.78278 -63.13279 2269 ft 173 kts 243°
2026-04-27 13:44 17.77790 -63.14435 2072 ft 174 kts 243°
2026-04-27 13:44 17.77302 -63.15589 1875 ft 172 kts 243°
2026-04-27 13:44 17.76816 -63.16739 1680 ft 173 kts 243°
2026-04-27 13:44 17.76336 -63.17876 1510 ft 167 kts 244°
2026-04-27 13:45 17.75881 -63.18954 1510 ft 157 kts 243°
2026-04-27 13:45 17.75450 -63.19971 1498 ft 152 kts 244°
2026-04-27 13:45 17.75029 -63.20969 1495 ft 149 kts 242°
2026-04-27 13:45 17.74611 -63.21958 1492 ft 147 kts 244°
2026-04-27 13:46 17.74200 -63.22929 1495 ft 145 kts 242°
2026-04-27 13:46 17.73794 -63.23890 1507 ft 141 kts 244°
2026-04-27 13:46 17.73412 -63.24798 1510 ft 133 kts 240°
2026-04-27 13:46 17.73034 -63.25684 1513 ft 132 kts 243°
2026-04-27 13:47 17.72663 -63.26562 1504 ft 132 kts 242°
2026-04-27 13:47 17.72266 -63.27426 1511 ft 131 kts 239°
2026-04-27 13:47 17.71859 -63.28253 1518 ft 124 kts 238°
2026-04-27 13:47 17.71487 -63.28991 1524 ft 113 kts 235°
2026-04-27 13:48 17.71111 -63.29643 1467 ft 97 kts 221°
2026-04-27 13:48 17.70579 -63.30043 1300 ft 93 kts 195°
2026-04-27 13:48 17.69961 -63.30091 1193 ft 86 kts 161°
2026-04-27 13:48 17.69451 -63.29793 1060 ft 85 kts 139°
2026-04-27 13:49 17.69010 -63.29409 991 ft 80 kts 136°
2026-04-27 13:49 17.68614 -63.29029 990 ft 74 kts 131°
2026-04-27 13:49 17.68304 -63.28609 1002 ft 74 kts 126°
2026-04-27 13:49 17.67996 -63.28138 1077 ft 80 kts 125°
2026-04-27 13:50 17.67705 -63.27628 1097 ft 87 kts 122°
2026-04-27 13:50 17.67391 -63.27085 1037 ft 86 kts 122°
2026-04-27 13:50 17.67070 -63.26553 957 ft 88 kts 122°
2026-04-27 13:50 17.66735 -63.26028 897 ft 84 kts 123°
2026-04-27 13:51 17.66401 -63.25534 823 ft 82 kts 124°
2026-04-27 13:51 17.66076 -63.25050 764 ft 80 kts 124°
2026-04-27 13:51 17.65764 -63.24562 693 ft 80 kts 124°
2026-04-27 13:51 17.65433 -63.24116 678 ft 78 kts 127°
2026-04-27 13:52 17.65137 -63.23630 591 ft 80 kts 117°
2026-04-27 13:52 17.64929 -63.23092 463 ft 80 kts 108°
2026-04-27 13:52 17.64755 -63.22576 245 ft 69 kts 110°
2026-04-27 13:52 17.64577 -63.22146 141 ft 57 kts 112°
2026-04-27 13:53 17.64485 -63.21897 121 ft 0 kts 122°